| time (UTC) | temp F | wind direction | speed knots | gust knots | rain 1hr in | rain 24hr in | rain mn in | humidity % | barometer mb |
| 20260510034506 | 58 | 47 | 0.0 | 0.0 | 0.00 | 0.00 | 0.00 | 70 | 1015.5 |
| 20260510033005 | 59 | 47 | 0.0 | 0.0 | 0.00 | 0.00 | 0.00 | 70 | 1015.4 |
| 20260510031505 | 60 | 35 | 0.0 | 0.0 | 0.00 | 0.00 | 0.00 | 68 | 1015.5 |
| 20260510030009 | 61 | 35 | 0.0 | 0.9 | 0.00 | 0.00 | 0.00 | 67 | 1015.6 |
| 20260510024503 | 62 | 35 | 0.0 | 1.7 | 0.00 | 0.00 | 0.00 | 65 | 1015.6 |
| 20260510023005 | 64 | 35 | 0.0 | 1.7 | 0.00 | 0.00 | 0.00 | 65 | 1015.7 |
| 20260510021502 | 65 | 340 | 0.0 | 2.6 | 0.00 | 0.00 | 0.00 | 61 | 1015.7 |
| 20260510020101 | 66 | 348 | 1.7 | 4.3 | 0.00 | 0.00 | 0.00 | 58 | 1015.8 |
| 20260510014615 | 66 | 23 | 0.9 | 2.6 | 0.00 | 0.00 | 0.00 | 61 | 1016.1 |
| 20260510013104 | 66 | 22 | 0.0 | 2.6 | 0.00 | 0.00 | 0.00 | 61 | 1016.5 |
| 20260510011554 | 66 | 24 | 0.0 | 3.5 | 0.00 | 0.00 | 0.00 | 63 | 1016.6 |
| 20260510010053 | 66 | 24 | 0.9 | 3.5 | 0.00 | 0.00 | 0.00 | 59 | 1016.8 |
| 20260510004555 | 66 | 340 | 1.7 | 4.3 | 0.00 | 0.00 | 0.00 | 57 | 1016.9 |
| 20260510003052 | 66 | 336 | 0.9 | 3.5 | 0.00 | 0.00 | 0.00 | 61 | 1017.0 |
| 20260510001548 | 67 | 355 | 0.9 | 4.3 | 0.00 | 0.00 | 0.00 | 56 | 1017.3 |
| 20260510000046 | 67 | 160 | 0.0 | 5.2 | 0.00 | 0.00 | 0.00 | 57 | 1017.8 |
| 20260509234544 | 67 | 234 | 0.9 | 3.5 | 0.00 | 0.00 | 0.00 | 57 | 1017.8 |
| 20260509233046 | 67 | 34 | 1.7 | 4.3 | 0.00 | 0.00 | 0.00 | 54 | 1018.4 |
| 20260509231544 | 68 | 286 | 0.9 | 4.3 | 0.00 | 0.00 | 0.00 | 54 | 1018.5 |
| 20260509230038 | 67 | 344 | 1.7 | 7.8 | 0.00 | 0.00 | 0.00 | 55 | 1018.8 |
| 20260509224536 | 67 | 205 | 0.9 | 4.3 | 0.00 | 0.00 | 0.00 | 55 | 1019.1 |
| 20260509223042 | 68 | 329 | 0.9 | 5.2 | 0.00 | 0.00 | 0.00 | 57 | 1019.3 |
| 20260509221533 | 67 | 36 | 0.9 | 5.2 | 0.00 | 0.00 | 0.00 | 59 | 1019.5 |
| 20260509220031 | 67 | 355 | 0.9 | 4.3 | 0.00 | 0.00 | 0.00 | 59 | 1019.6 |
| 20260509214529 | 66 | 121 | 0.9 | 3.5 | 0.00 | 0.00 | 0.00 | 62 | 1019.6 |
| 20260509213028 | 67 | 338 | 1.7 | 7.8 | 0.00 | 0.00 | 0.00 | 57 | 1019.8 |
| 20260509211527 | 67 | 24 | 0.9 | 4.3 | 0.00 | 0.00 | 0.00 | 61 | 1020.0 |
| 20260509210036 | 66 | 342 | 0.9 | 4.3 | 0.00 | 0.00 | 0.00 | 62 | 1020.1 |
| 20260509204525 | 66 | 319 | 1.7 | 5.2 | 0.00 | 0.00 | 0.00 | 60 | 1019.9 |
| 20260509203025 | 66 | 24 | 2.6 | 4.3 | 0.00 | 0.00 | 0.00 | 59 | 1020.0 |
| 20260509201526 | 67 | 48 | 0.9 | 4.3 | 0.00 | 0.00 | 0.00 | 61 | 1020.1 |
| 20260509200023 | 66 | 196 | 1.7 | 7.0 | 0.00 | 0.00 | 0.00 | 59 | 1020.1 |
| 20260509194522 | 65 | 235 | 1.7 | 5.2 | 0.00 | 0.00 | 0.00 | 61 | 1020.4 |
| 20260509193018 | 67 | 12 | 0.9 | 2.6 | 0.00 | 0.00 | 0.00 | 61 | 1020.7 |
| 20260509191519 | 66 | 194 | 0.9 | 4.3 | 0.00 | 0.00 | 0.00 | 55 | 1020.8 |
| 20260509190017 | 66 | 40 | 2.6 | 5.2 | 0.00 | 0.00 | 0.00 | 51 | 1021.0 |
| 20260509184517 | 66 | 49 | 1.7 | 7.8 | 0.00 | 0.00 | 0.00 | 54 | 1021.0 |
| 20260509183012 | 66 | 67 | 0.0 | 4.3 | 0.00 | 0.00 | 0.00 | 57 | 1021.0 |
| 20260509181510 | 65 | 344 | 2.6 | 7.0 | 0.00 | 0.00 | 0.00 | 56 | 1021.4 |
| 20260509180006 | 64 | 43 | 1.7 | 4.3 | 0.00 | 0.00 | 0.00 | 60 | 1021.2 |
| 20260509174505 | 63 | 79 | 1.7 | 10.4 | 0.00 | 0.00 | 0.00 | 60 | 1021.2 |
| 20260509173120 | 62 | 15 | 4.3 | 8.7 | 0.00 | 0.00 | 0.00 | 61 | 1021.3 |
| 20260509171559 | 61 | 355 | 3.5 | 7.8 | 0.00 | 0.00 | 0.00 | 65 | 1021.4 |
| 20260509170107 | 61 | 360 | 1.7 | 5.2 | 0.00 | 0.00 | 0.00 | 65 | 1021.5 |
| 20260509164652 | 60 | 11 | 3.5 | 7.0 | 0.00 | 0.00 | 0.00 | 68 | 1021.5 |
| 20260509163050 | 60 | 13 | 1.7 | 7.8 | 0.00 | 0.00 | 0.00 | 68 | 1021.9 |
| 20260509161544 | 59 | 22 | 3.5 | 7.8 | 0.00 | 0.00 | 0.00 | 71 | 1022.1 |
| 20260509160043 | 58 | 350 | 2.6 | 7.8 | 0.00 | 0.00 | 0.00 | 73 | 1022.2 |
| 20260509154535 | 57 | 350 | 1.7 | 4.3 | 0.00 | 0.00 | 0.00 | 74 | 1022.3 |
| 20260509153034 | 56 | 323 | 0.9 | 4.3 | 0.00 | 0.00 | 0.00 | 76 | 1022.2 |
| 20260509151527 | 55 | 338 | 2.6 | 7.0 | 0.00 | 0.00 | 0.00 | 75 | 1022.4 |
| 20260509150024 | 54 | 345 | 0.9 | 3.5 | 0.00 | 0.00 | 0.00 | 79 | 1022.5 |
| 20260509144521 | 53 | 340 | 1.7 | 3.5 | 0.00 | 0.00 | 0.00 | 80 | 1022.5 |
| 20260509143020 | 53 | 355 | 1.7 | 3.5 | 0.00 | 0.00 | 0.00 | 80 | 1022.6 |
| 20260509141518 | 53 | 22 | 0.9 | 1.7 | 0.00 | 0.00 | 0.00 | 82 | 1022.7 |
| 20260509140015 | 52 | 128 | 0.9 | 2.6 | 0.00 | 0.00 | 0.00 | 83 | 1022.8 |
| 20260509134512 | 52 | 136 | 0.9 | 1.7 | 0.00 | 0.00 | 0.00 | 86 | 1022.8 |
| 20260509133010 | 51 | 136 | 0.0 | 0.9 | 0.00 | 0.00 | 0.00 | 86 | 1022.8 |
| 20260509131507 | 51 | 136 | 0.9 | 1.7 | 0.00 | 0.00 | 0.00 | 86 | 1022.7 |
| 20260509130018 | 51 | 136 | 0.0 | 0.0 | 0.00 | 0.00 | 0.00 | 86 | 1022.7 |
| 20260509124515 | 51 | 136 | 0.0 | 0.9 | 0.00 | 0.00 | 0.00 | 86 | 1022.7 |
| 20260509123004 | 51 | 136 | 0.0 | 0.9 | 0.00 | 0.00 | 0.00 | 85 | 1022.6 |
| 20260509121503 | 52 | 136 | 0.0 | 1.7 | 0.00 | 0.00 | 0.00 | 84 | 1022.7 |
| 20260509120007 | 52 | 136 | 0.0 | 1.7 | 0.00 | 0.00 | 0.00 | 84 | 1022.7 |
| 20260509114503 | 52 | 136 | 0.0 | 0.0 | 0.00 | 0.00 | 0.00 | 84 | 1022.7 |
| 20260509113004 | 52 | 136 | 0.0 | 0.9 | 0.00 | 0.00 | 0.00 | 84 | 1022.7 |
| 20260509111600 | 52 | 136 | 0.0 | 0.0 | 0.00 | 0.00 | 0.00 | 84 | 1022.7 |
| 20260509111501 | 52 | 136 | 0.0 | 0.0 | 0.00 | 0.00 | 0.00 | 83 | 1022.7 |
| 20260509110000 | 52 | 136 | 0.0 | 0.0 | 0.00 | 0.00 | 0.00 | 83 | 1022.6 |
| 20260509104600 | 52 | 136 | 0.0 | 1.7 | 0.00 | 0.00 | 0.00 | 83 | 1022.6 |
| 20260509103109 | 52 | 136 | 0.9 | 1.7 | 0.00 | 0.00 | 0.00 | 83 | 1022.7 |
| 20260509101604 | 52 | 136 | 0.0 | 0.9 | 0.00 | 0.00 | 0.00 | 83 | 1022.6 |
| 20260509100100 | 52 | 136 | 0.0 | 0.0 | 0.00 | 0.00 | 0.00 | 83 | 1022.6 |
| 20260509094602 | 51 | 136 | 0.0 | 0.0 | 0.00 | 0.00 | 0.00 | 83 | 1022.5 |
| 20260509093058 | 51 | 136 | 0.0 | 0.0 | 0.00 | 0.00 | 0.00 | 84 | 1022.4 |
| 20260509091556 | 50 | 136 | 0.0 | 0.0 | 0.00 | 0.00 | 0.00 | 85 | 1022.5 |
| 20260509084605 | 49 | 136 | 0.0 | 0.0 | 0.00 | 0.00 | 0.00 | 87 | 1022.6 |
| 20260509083054 | 49 | 136 | 0.0 | 0.0 | 0.00 | 0.00 | 0.00 | 86 | 1022.7 |
| 20260509081557 | 49 | 136 | 0.0 | 0.0 | 0.00 | 0.00 | 0.00 | 86 | 1022.7 |
| 20260509080057 | 49 | 136 | 0.0 | 0.0 | 0.00 | 0.00 | 0.00 | 84 | 1022.7 |
| 20260509074548 | 50 | 136 | 0.0 | 0.0 | 0.00 | 0.00 | 0.00 | 83 | 1022.6 |
| 20260509073047 | 51 | 136 | 0.0 | 0.9 | 0.00 | 0.00 | 0.00 | 82 | 1022.6 |
| 20260509071543 | 52 | 136 | 0.0 | 0.0 | 0.00 | 0.00 | 0.00 | 80 | 1022.5 |
| 20260509070037 | 53 | 136 | 0.0 | 0.9 | 0.00 | 0.00 | 0.00 | 79 | 1022.6 |
| 20260509064551 | 53 | 136 | 0.0 | 2.6 | 0.00 | 0.00 | 0.00 | 79 | 1022.5 |
| 20260509063038 | 53 | 134 | 0.0 | 2.6 | 0.00 | 0.00 | 0.00 | 79 | 1022.6 |
| 20260509061545 | 53 | 188 | 0.0 | 1.7 | 0.00 | 0.00 | 0.00 | 79 | 1022.6 |
| 20260509060038 | 53 | 188 | 0.0 | 0.9 | 0.00 | 0.00 | 0.00 | 78 | 1022.6 |
| 20260509054538 | 53 | 188 | 0.0 | 1.7 | 0.00 | 0.00 | 0.00 | 77 | 1022.5 |
| 20260509053036 | 53 | 169 | 0.0 | 2.6 | 0.00 | 0.00 | 0.00 | 77 | 1022.6 |
| 20260509051534 | 54 | 154 | 0.0 | 2.6 | 0.00 | 0.00 | 0.00 | 77 | 1022.5 |
| 20260509050035 | 54 | 189 | 0.9 | 2.6 | 0.00 | 0.00 | 0.00 | 76 | 1022.5 |
| 20260509044532 | 54 | 140 | 0.9 | 4.3 | 0.00 | 0.00 | 0.00 | 75 | 1022.5 |
| 20260509043032 | 54 | 185 | 0.9 | 4.3 | 0.00 | 0.00 | 0.00 | 76 | 1022.4 |
| 20260509041530 | 54 | 175 | 0.0 | 3.5 | 0.00 | 0.00 | 0.00 | 76 | 1022.2 |
| 20260509040037 | 54 | 165 | 0.9 | 4.3 | 0.00 | 0.00 | 0.00 | 76 | 1022.2 |